CW8398 Weather Reports


Display with metric or nautical units.
time (UTC)temp
F
wind
direction
speed
MPH
gust
MPH
rain 1hr
in
rain 24hr
in
rain mn
in
humidity
%
barometer
mb
20260506134302 50 167 4.0 12.0 0.00 0.00 0.00 35 1011.7
20260506133803 51 173 5.0 12.0 0.00 0.00 0.00 37 1011.7
20260506133302 52 180 2.0 3.0 0.00 0.00 0.00 37 1011.8
20260506132802 51 177 4.0 14.0 0.00 0.00 0.00 35 1011.8
20260506132305 51 156 5.0 10.0 0.00 0.00 0.00 36 1011.8
20260506131802 51 172 4.0 12.0 0.00 0.00 0.00 38 1011.8
20260506131302 51 162 5.0 12.0 0.00 0.00 0.00 38 1011.8
20260506130802 51 190 5.0 9.0 0.00 0.00 0.00 36 1011.8
20260506130302 52 152 3.0 5.0 0.00 0.00 0.00 37 1011.8
20260506125802 52 164 4.0 10.0 0.00 0.00 0.00 36 1011.8
20260506124803 52 40 2.0 6.0 0.00 0.00 0.00 33 1011.8
20260506123302 54 293 2.0 5.0 0.00 0.00 0.00 33 1012.0
20260506122802 53 191 2.0 6.0 0.00 0.00 0.00 35 1012.0
20260506122305 53 79 2.0 6.0 0.00 0.00 0.00 35 1012.0
20260506121802 53 130 2.0 7.0 0.00 0.00 0.00 36 1012.0
20260506121303 53 168 2.0 6.0 0.00 0.00 0.00 36 1012.0
20260506120803 53 65 2.0 9.0 0.00 0.00 0.00 36 1012.0
20260506120302 54 158 1.0 8.0 0.00 0.00 0.00 38 1012.0
20260506115802 53 119 2.0 6.0 0.00 0.00 0.00 39 1012.0
20260506115306 53 315 2.0 7.0 0.00 0.00 0.00 38 1012.0
20260506114802 53 134 2.0 7.0 0.00 0.00 0.00 38 1012.0
20260506114302 53 62 3.0 8.0 0.00 0.00 0.00 37 1012.0
20260506113302 53 113 2.0 6.0 0.00 0.00 0.00 36 1012.0
20260506112802 53 157 2.0 6.0 0.00 0.00 0.00 37 1012.0
20260506112305 52 169 2.0 10.0 0.00 0.00 0.00 35 1012.0
20260506111803 53 165 2.0 7.0 0.00 0.00 0.00 37 1012.0
20260506110803 53 146 2.0 7.0 0.00 0.00 0.00 38 1012.0
20260506110302 53 145 2.0 7.0 0.00 0.00 0.00 39 1012.0
20260506105803 53 73 3.0 6.0 0.00 0.00 0.00 38 1012.0
20260506105305 53 145 1.0 6.0 0.00 0.00 0.00 41 1012.1
20260506103802 52 65 3.0 9.0 0.00 0.00 0.00 42 1012.2
20260506103302 52 155 3.0 8.0 0.00 0.00 0.00 41 1012.2
20260506102802 53 195 3.0 9.0 0.00 0.00 0.00 41 1012.2
20260506102305 52 153 3.0 9.0 0.00 0.00 0.00 38 1012.4
20260506101802 52 157 3.0 6.0 0.00 0.00 0.00 37 1012.4
20260506100302 52 351 2.0 5.0 0.00 0.00 0.00 36 1012.4
20260506095803 52 335 2.0 3.0 0.00 0.00 0.00 34 1012.4
20260506094802 51 32 1.0 3.0 0.00 0.00 0.00 35 1012.4
20260506094302 52 32 1.0 3.0 0.00 0.00 0.00 36 1012.4
20260506093802 50 19 0.0 1.0 0.00 0.00 0.00 34 1012.4
20260506093302 51 351 1.0 3.0 0.00 0.00 0.00 33 1012.3
20260506092802 51 15 2.0 3.0 0.00 0.00 0.00 32 1012.3
20260506092302 51 30 0.0 3.0 0.00 0.00 0.00 37 1012.3
20260506091802 50 322 1.0 7.0 0.00 0.00 0.00 36 1012.3
20260506091302 51 7 2.0 7.0 0.00 0.00 0.00 37 1012.3
20260506090802 51 11 2.0 3.0 0.00 0.00 0.00 38 1012.3
20260506090302 50 19 2.0 3.0 0.00 0.00 0.00 37 1012.3
20260506085305 50 30 1.0 3.0 0.00 0.00 0.00 40 1012.3
20260506084302 49 356 2.0 3.0 0.00 0.00 0.00 40 1012.3
20260506083302 49 48 2.0 3.0 0.00 0.00 0.00 42 1012.2
20260506082802 49 22 0.0 3.0 0.00 0.00 0.00 44 1012.2
20260506082304 48 25 2.0 3.0 0.00 0.00 0.00 45 1012.2
20260506081802 48 3 1.0 2.0 0.00 0.00 0.00 47 1012.2
20260506081302 47 39 2.0 3.0 0.00 0.00 0.00 46 1012.0
20260506080802 47 40 2.0 3.0 0.00 0.00 0.00 47 1012.0
20260506073302 46 0 2.0 3.0 0.00 0.00 0.00 53 1010.1
20260506072803 46 20 1.0 3.0 0.00 0.00 0.00 54 1010.1
20260506072305 45 24 2.0 3.0 0.00 0.00 0.00 55 1010.1
20260506071803 45 24 1.0 3.0 0.00 0.00 0.00 57 1010.1
20260506071302 45 16 1.0 3.0 0.00 0.00 0.00 58 1010.1
20260506070802 45 40 2.0 3.0 0.00 0.00 0.00 58 1010.1
20260506070303 44 11 2.0 3.0 0.00 0.00 0.00 58 1010.1
20260506062305 44 3 0.0 2.0 0.00 0.00 0.00 65 1010.1
20260506061302 43 290 1.0 3.0 0.00 0.00 0.00 65 1010.1
20260506060803 43 288 1.0 3.0 0.00 0.00 0.00 66 1010.1
20260506060302 43 303 1.0 3.0 0.00 0.00 0.00 66 1010.1
20260506051302 41 276 1.0 3.0 0.00 0.00 0.00 76 1010.1
20260506050303 40 293 1.0 3.0 0.00 0.00 0.00 78 1010.1
20260506044302 39 355 1.0 3.0 0.00 0.00 0.00 84 1010.1
20260506043803 38 307 2.0 3.0 0.00 0.00 0.00 86 1010.1
20260506043302 38 358 1.0 3.0 0.00 0.00 0.00 88 1010.1
20260506042803 37 324 1.0 3.0 0.00 0.00 0.00 90 1010.1
20260506042305 36 269 2.0 3.0 0.00 0.00 0.00 93 1010.1
20260506041802 35 304 1.0 2.0 0.00 0.00 0.00 95 1010.1
20260506041303 35 206 0.0 1.0 0.00 0.00 0.00 95 1010.1
20260506040802 34 206 0.0 1.0 0.00 0.00 0.00 95 1010.1
20260506040303 34 206 0.0 1.0 0.00 0.00 0.00 95 1010.1
20260506035802 34 206 0.0 1.0 0.00 0.00 0.00 95 1010.1
20260506035305 34 207 0.0 2.0 0.00 0.00 0.00 95 1010.1
20260506034802 34 205 1.0 3.0 0.00 0.00 0.00 95 1010.1
20260506034303 33 252 1.0 2.0 0.00 0.00 0.00 95 1010.1
20260506033802 33 252 0.0 0.0 0.00 0.00 0.00 95 1010.1
20260506032803 33 252 0.0 2.0 0.00 0.00 0.00 95 1010.1
20260506032305 33 252 1.0 2.0 0.00 0.00 0.00 94 1010.1
20260506031802 33 252 0.0 1.0 0.00 0.00 0.00 95 1010.1
20260506031303 34 252 0.0 1.0 0.00 0.00 0.00 95 1010.1
20260506030802 34 252 1.0 2.0 0.00 0.00 0.00 95 1010.1
20260506030302 34 260 0.0 1.0 0.00 0.00 0.00 95 1010.1
20260506025803 34 260 0.0 2.0 0.00 0.00 0.00 95 1010.1
20260506025305 34 260 0.0 1.0 0.00 0.00 0.00 95 1010.1
20260506024803 34 279 0.0 2.0 0.00 0.00 0.00 96 1010.1
20260506024303 34 331 0.0 1.0 0.00 0.00 0.00 95 1010.1
20260506023802 34 331 0.0 1.0 0.00 0.00 0.00 95 1010.1
20260506023303 34 331 0.0 1.0 0.00 0.00 0.00 95 1010.1
20260506022803 35 331 0.0 1.0 0.00 0.00 0.00 95 1010.1
20260506022305 35 331 0.0 1.0 0.00 0.00 0.00 96 1010.1
20260506021802 35 301 0.0 2.0 0.00 0.00 0.00 96 1010.0
20260506020802 34 227 0.0 1.0 0.00 0.00 0.00 95 1009.7
20260506020303 34 217 0.0 0.0 0.00 0.00 0.00 95 1009.7
20260506015802 34 217 0.0 0.0 0.00 0.00 0.00 95 1009.7
20260506014803 34 217 0.0 0.0 0.00 0.00 0.00 95 1009.7
20260506014302 34 217 0.0 1.0 0.00 0.00 0.00 95 1009.7
20260506013803 34 217 0.0 0.0 0.00 0.00 0.00 95 1009.7
20260506013302 34 217 0.0 0.0 0.00 0.00 0.00 95 1009.7
20260506012803 35 217 0.0 1.0 0.00 0.00 0.00 95 1009.7
20260506011802 35 217 0.0 1.0 0.00 0.00 0.00 95 1009.6
20260506011303 35 217 0.0 1.0 0.00 0.00 0.00 95 1009.5
20260506010803 35 217 0.0 1.0 0.00 0.00 0.00 95 1009.5
20260506005803 34 215 0.0 1.0 0.00 0.00 0.00 95 1009.3
20260506005305 34 215 1.0 2.0 0.00 0.00 0.00 95 1009.3
20260506004802 34 215 0.0 1.0 0.00 0.00 0.00 95 1008.9
20260506004303 35 215 0.0 1.0 0.00 0.00 0.00 95 1008.9
20260506003803 35 215 0.0 1.0 0.00 0.00 0.00 95 1008.9
20260506003303 36 215 1.0 3.0 0.00 0.00 0.00 95 1008.9
20260506002305 36 215 0.0 3.0 0.00 0.00 0.00 95 1008.9
20260506001303 35 223 0.0 0.0 0.00 0.00 0.00 95 1008.9
20260506000803 34 223 0.0 1.0 0.00 0.00 0.00 95 1008.9
20260506000302 34 223 0.0 2.0 0.00 0.00 0.00 95 1008.9
20260505235305 34 223 1.0 2.0 0.00 0.00 0.00 95 1008.9
20260505234802 34 223 1.0 3.0 0.00 0.00 0.00 95 1008.9
20260505234302 34 223 1.0 2.0 0.00 0.00 0.00 94 1008.9
20260505233803 35 223 1.0 2.0 0.00 0.00 0.00 94 1008.8
20260505233303 35 223 0.0 2.0 0.00 0.00 0.00 94 1008.8
20260505232803 36 223 0.0 0.0 0.00 0.00 0.00 95 1008.8
20260505232305 36 223 0.0 1.0 0.00 0.00 0.00 95 1008.8
20260505231802 36 223 0.0 1.0 0.00 0.00 0.00 94 1008.8
20260505231303 37 223 1.0 2.0 0.00 0.00 0.00 95 1008.8
20260505230803 38 265 0.0 1.0 0.00 0.00 0.00 95 1008.8
20260505230303 38 265 1.0 2.0 0.00 0.00 0.00 95 1008.8
20260505225802 38 245 0.0 2.0 0.00 0.00 0.00 95 1008.8
20260505225305 37 240 0.0 1.0 0.00 0.00 0.00 95 1008.5
20260505224303 37 162 0.0 1.0 0.00 0.00 0.00 94 1008.5
20260505223803 37 161 0.0 1.0 0.00 0.00 0.00 94 1008.5
20260505223303 37 161 0.0 1.0 0.00 0.00 0.00 95 1008.5
20260505222803 36 162 0.0 1.0 0.00 0.00 0.00 94 1008.5
20260505222305 36 162 0.0 1.0 0.00 0.00 0.00 94 1008.5
20260505221802 37 162 0.0 0.0 0.00 0.00 0.00 94 1008.5
20260505221303 37 162 0.0 0.0 0.00 0.00 0.00 94 1008.5
20260505220816 37 162 0.0 0.0 0.00 0.00 0.00 94 1008.5
20260505220302 37 162 0.0 0.0 0.00 0.00 0.00 94 1008.3
20260505215803 37 161 0.0 0.0 0.00 0.00 0.00 94 1008.3
20260505215305 38 162 0.0 2.0 0.00 0.00 0.00 94 1008.3
20260505214803 38 162 0.0 2.0 0.00 0.00 0.00 94 1008.3
20260505214302 38 162 0.0 2.0 0.00 0.00 0.00 94 1008.3
20260505213803 38 162 0.0 0.0 0.00 0.00 0.00 94 1008.3
20260505213302 38 162 0.0 1.0 0.00 0.00 0.00 94 1008.2
20260505212802 37 38 1.0 2.0 0.00 0.00 0.00 94 1008.2
20260505211803 38 34 0.0 2.0 0.00 0.00 0.00 93 1008.1
20260505211303 38 34 0.0 0.0 0.00 0.00 0.00 94 1008.1
20260505210303 38 34 0.0 0.0 0.00 0.00 0.00 93 1007.7
20260505205803 38 34 0.0 0.0 0.00 0.00 0.00 94 1007.7
20260505205305 38 34 0.0 0.0 0.00 0.00 0.00 93 1007.7
20260505204802 38 34 0.0 0.0 0.00 0.00 0.00 94 1007.7
20260505204302 38 34 0.0 0.0 0.00 0.00 0.00 94 1007.7
20260505203803 38 34 0.0 0.0 0.00 0.00 0.00 94 1007.7
20260505203303 37 34 0.0 0.0 0.00 0.00 0.00 93 1007.7
20260505202803 37 34 0.0 0.0 0.00 0.00 0.00 93 1007.7
20260505202306 37 34 1.0 1.0 0.00 0.00 0.00 93 1007.7
20260505201802 37 34 1.0 2.0 0.00 0.00 0.00 93 1007.2
20260505201302 38 34 1.0 1.0 0.00 0.00 0.00 93 1007.2
20260505200303 38 34 0.0 1.0 0.00 0.00 0.00 92 1007.2
20260505195803 38 34 0.0 1.0 0.00 0.00 0.00 92 1007.2
20260505195305 39 34 0.0 0.0 0.00 0.00 0.00 92 1007.2
20260505194802 39 34 0.0 1.0 0.00 0.00 0.00 92 1007.2
20260505194303 39 34 0.0 1.0 0.00 0.00 0.00 91 1007.2
20260505193303 39 34 0.0 1.0 0.00 0.00 0.00 91 1007.2
20260505192305 40 23 0.0 0.0 0.00 0.00 0.00 90 1007.2
20260505191802 40 23 0.0 1.0 0.00 0.00 0.00 89 1007.2
20260505191303 41 23 0.0 2.0 0.00 0.00 0.00 89 1007.2
20260505190303 41 342 1.0 2.0 0.00 0.00 0.00 89 1006.6
20260505185803 41 4 1.0 3.0 0.00 0.00 0.00 89 1006.6
20260505185305 41 19 0.0 3.0 0.00 0.00 0.00 88 1006.6
20260505184803 42 36 1.0 2.0 0.00 0.00 0.00 89 1006.6
20260505184303 41 40 0.0 3.0 0.00 0.00 0.00 88 1006.6
20260505183803 42 32 0.0 2.0 0.00 0.00 0.00 88 1006.6
20260505183303 42 32 1.0 2.0 0.00 0.00 0.00 87 1006.6
20260505182803 42 31 1.0 3.0 0.00 0.00 0.00 88 1006.6
20260505182305 42 32 1.0 3.0 0.00 0.00 0.00 87 1006.6
20260505181803 43 56 1.0 3.0 0.00 0.00 0.00 87 1006.6
20260505181303 43 15 1.0 3.0 0.00 0.00 0.00 87 1006.6
20260505180803 43 31 1.0 3.0 0.00 0.00 0.00 87 1006.6
20260505180303 43 21 2.0 6.0 0.00 0.00 0.00 87 1006.6
20260505175803 43 1 2.0 3.0 0.00 0.00 0.00 87 1006.6
20260505174803 43 38 1.0 3.0 0.00 0.00 0.00 87 1006.2
20260505174303 43 21 1.0 3.0 0.00 0.00 0.00 86 1006.2
20260505173803 43 26 2.0 3.0 0.00 0.00 0.00 86 1006.2
20260505173303 43 5 3.0 6.0 0.00 0.00 0.00 85 1006.2
20260505172305 44 27 2.0 3.0 0.00 0.00 0.00 85 1006.2
20260505171803 44 20 3.0 5.0 0.00 0.00 0.00 85 1006.0
20260505170803 44 344 2.0 5.0 0.00 0.00 0.00 85 1006.0
20260505170303 44 21 2.0 5.0 0.00 0.00 0.00 85 1006.0
20260505165305 45 21 2.0 5.0 0.00 0.00 0.00 84 1005.7
20260505164803 45 15 2.0 5.0 0.00 0.00 0.00 84 1005.7
20260505164303 45 12 2.0 5.0 0.00 0.00 0.00 84 1005.7
20260505163803 45 39 3.0 6.0 0.00 0.00 0.00 85 1005.7
20260505163303 45 349 2.0 5.0 0.00 0.00 0.00 85 1005.7
20260505162803 45 348 2.0 5.0 0.00 0.00 0.00 84 1005.7
20260505161803 46 13 2.0 5.0 0.00 0.00 0.00 82 1005.2
20260505161303 46 347 2.0 8.0 0.00 0.00 0.00 82 1005.2
20260505160303 45 35 3.0 5.0 0.00 0.00 0.00 83 1005.2
20260505153303 48 4 5.0 8.0 0.00 0.00 0.00 77 1005.2
20260505152803 48 11 2.0 8.0 0.00 0.00 0.00 74 1005.2
20260505151803 50 347 2.0 5.0 0.00 0.00 0.00 61 1005.2
20260505150803 51 21 4.0 10.0 0.00 0.00 0.00 49 1005.2
20260505150302 51 335 2.0 6.0 0.00 0.00 0.00 42 1005.2
20260505140303 53 27 4.0 10.0 0.00 0.00 0.00 38 1005.0